[TLELIST] Archives

 

[list_settings.list_name] Current TLEs

October 25th 2013 PST

HST 1 20580U 90037B 13297.02374242 .00002999 00000-0 19944-3 0 3599 2 20580 028.4692 147.9830 0003071 288.2364 225.1775 15.04054326 89112 ISS (ZARYA) 1 25544U 98067A 13298.45733796 -.00004849 00000-0 -78366-4 0 8829 2 25544 051.6460 182.8837 0002121 088.8189 270.8223 15.49540596854907 CXO 1 25867U 99040B 13300.15658341 -.00000067 00000-0 00000+0 0 9678 2 25867 076.1319 332.0640 8423138 276.4491 359.9858 00.37798829 11032 ____________________________________________________________________ These 2-Line ...Continue Reading

[list_settings.list_name] Current TLEs

October 24th 2013 PST

HST 1 20580U 90037B 13297.02374242 .00002999 00000-0 19944-3 0 3599 2 20580 028.4692 147.9830 0003071 288.2364 225.1775 15.04054326 89112 ISS (ZARYA) 1 25544U 98067A 13297.49003314 .00011755 00000-0 20629-3 0 8749 2 25544 051.6489 187.6717 0002547 056.3165 303.8585 15.49900722854767 CXO 1 25867U 99040B 13297.51110186 -.00000114 00000-0 00000+0 0 9665 2 25867 076.1126 332.2053 8426817 276.4878 359.8058 00.37801000 11020 ____________________________________________________________________ These 2-Line ...Continue Reading

[list_settings.list_name] Current TLEs

October 23rd 2013 PST

HST 1 20580U 90037B 13295.81670461 .00002986 00000-0 19855-3 0 3582 2 20580 028.4691 155.9012 0003010 275.5268 169.3797 15.04049349 88927 ISS (ZARYA) 1 25544U 98067A 13296.45387731 .00015971 00000-0 28848-3 0 8646 2 25544 051.6494 192.7984 0002775 060.2381 274.7913 15.49878626854592 CXO 1 25867U 99040B 13297.51110186 -.00000114 00000-0 00000+0 0 9665 2 25867 076.1126 332.2053 8426817 276.4878 359.8058 00.37801000 11020 ____________________________________________________________________ These 2-Line ...Continue Reading

[list_settings.list_name] Current TLEs

October 22nd 2013 PST

HST 1 20580U 90037B 13294.09950120 .00002924 00000-0 19420-3 0 3573 2 20580 028.4689 167.1660 0002947 256.0455 232.6089 15.04041693 88672 ISS (ZARYA) 1 25544U 98067A 13295.52467044 .00020941 00000-0 37583-3 0 8570 2 25544 051.6500 197.4019 0002970 054.6192 132.4727 15.49853806854456 CXO 1 25867U 99040B 13297.51110186 -.00000114 00000-0 00000+0 0 9665 2 25867 076.1126 332.2053 8426817 276.4878 359.8058 00.37801000 11020 ____________________________________________________________________ These 2-Line ...Continue Reading

[list_settings.list_name] Current TLEs

October 21st 2013 PST

HST 1 20580U 90037B 13294.09950120 .00002924 00000-0 19420-3 0 3573 2 20580 028.4689 167.1660 0002947 256.0455 232.6089 15.04041693 88672 ISS (ZARYA) 1 25544U 98067A 13294.45532407 .00014993 00000-0 27187-3 0 8497 2 25544 051.6518 202.6925 0002822 049.7290 287.1204 15.49820542854280 CXO 1 25867U 99040B 13294.86809635 -.00000235 00000-0 00000+0 0 9657 2 25867 076.0956 332.3734 8429721 276.5102 359.9700 00.37803511 11018 ____________________________________________________________________ These 2-Line ...Continue Reading

[list_settings.list_name] Current TLEs

October 20th 2013 PST

HST 1 20580U 90037B 13292.83057766 .00002692 00000-0 17788-3 0 3563 2 20580 028.4691 175.4895 0002954 240.8302 203.6316 15.04035917 88478 ISS (ZARYA) 1 25544U 98067A 13293.25862972 .00013960 00000-0 25408-3 0 8438 2 25544 051.6516 208.6175 0003010 044.7663 090.9668 15.49780250854106 CXO 1 25867U 99040B 13294.86809635 -.00000235 00000-0 00000+0 0 9657 2 25867 076.0956 332.3734 8429721 276.5102 359.9700 00.37803511 11018 ____________________________________________________________________ These 2-Line ...Continue Reading

[list_settings.list_name] Current TLEs

October 19th 2013 PST

HST 1 20580U 90037B 13291.11694441 .00002698 00000-0 17831-3 0 3554 2 20580 028.4694 186.7301 0002972 221.1049 286.5557 15.04029130 88228 ISS (ZARYA) 1 25544U 98067A 13292.23040837 .00013593 00000-0 24790-3 0 8360 2 25544 051.6516 213.7088 0002923 043.0432 112.2938 15.49749168853946 CXO 1 25867U 99040B 13292.22382268 -.00000332 00000-0 00000+0 0 9640 2 25867 076.0924 332.5088 8431909 276.5454 359.9525 00.37803107 11003 ____________________________________________________________________ These 2-Line ...Continue Reading

[list_settings.list_name] Current TLEs

October 18th 2013 PST

HST 1 20580U 90037B 13291.11694441 .00002698 00000-0 17831-3 0 3554 2 20580 028.4694 186.7301 0002972 221.1049 286.5557 15.04029130 88228 ISS (ZARYA) 1 25544U 98067A 13291.44859036 .00013593 00000-0 24809-3 0 8306 2 25544 051.6518 217.5800 0002889 041.0377 069.6137 15.49727332853821 CXO 1 25867U 99040B 13292.22382268 -.00000332 00000-0 00000+0 0 9640 2 25867 076.0924 332.5088 8431909 276.5454 359.9525 00.37803107 11003 ____________________________________________________________________ These 2-Line ...Continue Reading

[list_settings.list_name] Current TLEs

October 17th 2013 PST

HST 1 20580U 90037B 13289.84173819 .00002990 00000-0 19898-3 0 3541 2 20580 028.4697 195.0945 0003022 206.0202 223.4255 15.04024040 88026 ISS (ZARYA) 1 25544U 98067A 13290.41521157 .00012626 00000-0 23129-3 0 8234 2 25544 051.6518 222.6970 0002665 038.3962 063.2634 15.49695258853662 CXO 1 25867U 99040B 13292.22382268 -.00000332 00000-0 00000+0 0 9640 2 25867 076.0924 332.5088 8431909 276.5454 359.9525 00.37803107 11003 ____________________________________________________________________ These 2-Line ...Continue Reading

[list_settings.list_name] Current TLEs

October 16th 2013 PST

HST 1 20580U 90037B 13288.19177088 .00003357 00000-0 22493-3 0 3532 2 20580 028.4701 205.9171 0003049 187.4897 290.6409 15.04013697 87780 ISS (ZARYA) 1 25544U 98067A 13289.44832414 .00010757 00000-0 19852-3 0 8169 2 25544 051.6505 227.4833 0002913 034.6755 069.2753 15.49662569853515 CXO 1 25867U 99040B 13292.22382268 -.00000332 00000-0 00000+0 0 9640 2 25867 076.0924 332.5088 8431909 276.5454 359.9525 00.37803107 11003 ____________________________________________________________________ These 2-Line ...Continue Reading
  • This mailing list is a public mailing list - anyone may join or leave, at any time.
  • This mailing list is announce-only.

International Space Station (ISS) / Hubble Space Telescope (HST) / Chandra X-Ray Observatory Orbital Data via EMAIL

Privacy Policy:

Private list